Airport Information

KALW - Walla Walla Regional Airport

KALW 191853Z 21010G20KT 10SM CLR 21/03 A3004 RMK AO2 SLP170 T02060033


  • General Information

  • Coordinates: N 46°5'41"/ W 118°17'16"
  • Location: N/A
  • Surveyed Elevation: 1191 MSL

Operations

Flow Name Active Runways Conditions

Green background denotes normal operations.


Common Frequencies

Callsign Frequency Position Name

More at the Document Center


Charts